Location: Villingen
(48.0639°N, 8.4609°E)
Time: 15:27:00
(UTC+01:00)

ISS - Pass Details

Date: 11 January 2018
Orbit: 402 x 407 km, 51.6° (Epoch: 21 January)

Event Time Altitude Azimuth Distance (km) Brightness Sun altitude
Exits shadow 07:13:43 14° 280° (W) 1,252 -2.0 -9.7°
Maximum altitude 07:16:15 39° 213° (SSW) 622 -3.0 -9.4°
Drops below altitude 10° 07:19:20 10° 143° (SE) 1,463 0.0 -8.9°
Sets 07:21:29 0° 135° (SE) 2,320 1.5 -8.5°
